KLM22T TTCP-SOCA

Flight info

Callsign KLM22T
Flight time 1h 40m
Altitude 35000
Route TAB DCT UMREM DCT BUXEX DCT KUKOV DCT CYR
Aircraft B738/M-SDE2E3FGHIRWXY/LB1

Departure

Time 2026-04-14 12:03
Airport A.N.R. Robinson International Airport (TTCP)

Arrival

Time 2026-04-14 13:43
Airport Cayenne – Félix Eboué Airport (SOCA)
Time Latitude Longitude Altitude Speed Heading
2026-04-14 11:41 11.15192 -60.84004 36 ft 0 kts
2026-04-14 11:56 11.15170 -60.84003 36 ft 4 kts 354°
2026-04-14 11:57 11.15144 -60.83999 36 ft 4 kts 340°
2026-04-14 11:57 11.15122 -60.83986 35 ft 4 kts 304°
2026-04-14 11:57 11.15116 -60.83975 35 ft 0 kts 276°
2026-04-14 11:59 11.15117 -60.83985 35 ft 4 kts 276°
2026-04-14 11:59 11.15122 -60.84032 35 ft 9 kts 275°
2026-04-14 11:59 11.15121 -60.84091 35 ft 6 kts 254°
2026-04-14 12:00 11.15090 -60.84143 35 ft 12 kts 232°
2026-04-14 12:00 11.15045 -60.84205 35 ft 9 kts 251°
2026-04-14 12:00 11.15043 -60.84276 35 ft 12 kts 268°
2026-04-14 12:00 11.15016 -60.84347 35 ft 10 kts 243°
2026-04-14 12:01 11.15005 -60.84403 35 ft 7 kts 274°
2026-04-14 12:01 11.15024 -60.84430 35 ft 4 kts 337°
2026-04-14 12:01 11.15046 -60.84422 35 ft 4 kts 47°
2026-04-14 12:01 11.15053 -60.84393 35 ft 2 kts 93°
2026-04-14 12:02 11.15051 -60.84378 35 ft 11 kts 94°
2026-04-14 12:02 11.15032 -60.84121 35 ft 62 kts 94°
2026-04-14 12:02 11.14989 -60.83524 36 ft 108 kts 94°
2026-04-14 12:02 11.14922 -60.82612 38 ft 150 kts 94°
2026-04-14 12:03 11.14823 -60.81491 408 ft 163 kts 96°
2026-04-14 12:03 11.14614 -60.80325 938 ft 173 kts 112°
2026-04-14 12:03 11.13953 -60.79324 1785 ft 159 kts 134°
2026-04-14 12:03 11.13169 -60.78618 2537 ft 157 kts 136°
2026-04-14 12:04 11.12341 -60.77781 2797 ft 179 kts 126°
2026-04-14 12:04 11.11536 -60.76729 3272 ft 192 kts 125°
2026-04-14 12:04 11.10695 -60.75673 4082 ft 190 kts 128°
2026-04-14 12:04 11.09815 -60.74641 4734 ft 198 kts 129°
2026-04-14 12:05 11.08908 -60.73567 5282 ft 207 kts 128°
2026-04-14 12:05 11.07948 -60.72399 5770 ft 222 kts 129°
2026-04-14 12:05 11.06908 -60.71155 6206 ft 240 kts 129°
2026-04-14 12:05 11.05771 -60.69804 6554 ft 262 kts 129°
2026-04-14 12:06 11.04554 -60.68348 7050 ft 275 kts 129°
2026-04-14 12:06 11.03317 -60.66862 7892 ft 273 kts 129°
2026-04-14 12:06 11.02086 -60.65396 8679 ft 274 kts 130°
2026-04-14 12:06 11.00824 -60.63895 9251 ft 283 kts 130°
2026-04-14 12:07 10.99534 -60.62347 9864 ft 288 kts 130°
2026-04-14 12:07 10.98244 -60.60798 10529 ft 292 kts 130°
2026-04-14 12:07 10.96905 -60.59202 11028 ft 302 kts 131°
2026-04-14 12:07 10.95507 -60.57540 11425 ft 313 kts 131°
2026-04-14 12:08 10.94084 -60.55843 12041 ft 316 kts 131°
2026-04-14 12:08 10.92655 -60.54134 12690 ft 318 kts 131°
2026-04-14 12:08 10.91211 -60.52408 13242 ft 322 kts 131°
2026-04-14 12:08 10.89750 -60.50663 13783 ft 326 kts 132°
2026-04-14 12:09 10.88287 -60.48917 14319 ft 330 kts 132°
2026-04-14 12:09 10.86786 -60.47129 14829 ft 333 kts 132°
2026-04-14 12:09 10.85278 -60.45327 15392 ft 334 kts 133°
2026-04-14 12:09 10.83758 -60.43514 15807 ft 340 kts 133°
2026-04-14 12:10 10.82201 -60.41657 16160 ft 347 kts 133°
2026-04-14 12:10 10.80637 -60.39786 16779 ft 346 kts 133°
2026-04-14 12:10 10.79075 -60.37914 17292 ft 348 kts 133°
2026-04-14 12:10 10.77508 -60.36046 17687 ft 353 kts 133°
2026-04-14 12:11 10.75900 -60.34136 18120 ft 357 kts 134°
2026-04-14 12:11 10.74286 -60.32218 18627 ft 357 kts 134°
2026-04-14 12:11 10.72651 -60.30275 18889 ft 365 kts 134°
2026-04-14 12:11 10.70987 -60.28294 19296 ft 368 kts 134°
2026-04-14 12:12 10.69330 -60.26317 19833 ft 367 kts 134°
2026-04-14 12:12 10.68230 -60.25005 20107 ft 369 kts 134°
2026-04-14 12:12 10.66552 -60.23011 20462 ft 373 kts 134°
2026-04-14 12:12 10.64308 -60.20343 20954 ft 377 kts 134°
2026-04-14 12:13 10.63153 -60.18971 21202 ft 379 kts 134°
2026-04-14 12:13 10.61431 -60.16925 21583 ft 381 kts 134°
2026-04-14 12:13 10.59727 -60.14892 21940 ft 384 kts 134°
2026-04-14 12:13 10.57991 -60.12816 22288 ft 386 kts 134°
2026-04-14 12:14 10.56248 -60.10731 22627 ft 388 kts 134°
2026-04-14 12:14 10.54588 -60.08753 22935 ft 391 kts 134°
2026-04-14 12:14 10.52818 -60.06649 23264 ft 393 kts 134°
2026-04-14 12:14 10.51029 -60.04525 23580 ft 395 kts 134°
2026-04-14 12:15 10.49236 -60.02395 23888 ft 397 kts 134°
2026-04-14 12:15 10.47434 -60.00247 24182 ft 400 kts 134°
2026-04-14 12:15 10.45623 -59.98093 24483 ft 402 kts 134°
2026-04-14 12:15 10.43828 -59.95958 24794 ft 403 kts 134°
2026-04-14 12:16 10.42005 -59.93788 25092 ft 405 kts 134°
2026-04-14 12:16 10.40169 -59.91602 25360 ft 406 kts 134°
2026-04-14 12:16 10.38331 -59.89418 25637 ft 408 kts 134°
2026-04-14 12:16 10.36482 -59.87223 25888 ft 410 kts 134°
2026-04-14 12:17 10.34621 -59.85016 26149 ft 412 kts 134°
2026-04-14 12:17 10.32750 -59.82799 26405 ft 413 kts 134°
2026-04-14 12:17 10.30869 -59.80573 26667 ft 415 kts 134°
2026-04-14 12:17 10.29004 -59.78367 26915 ft 416 kts 134°
2026-04-14 12:18 10.27111 -59.76125 27161 ft 418 kts 134°
2026-04-14 12:18 10.25217 -59.73871 27403 ft 419 kts 134°
2026-04-14 12:18 10.23321 -59.71613 27634 ft 421 kts 134°
2026-04-14 12:18 10.21421 -59.69349 27865 ft 422 kts 134°
2026-04-14 12:19 10.19507 -59.67071 28088 ft 424 kts 134°
2026-04-14 12:19 10.17588 -59.64787 28299 ft 425 kts 134°
2026-04-14 12:19 10.15665 -59.62498 28491 ft 426 kts 134°
2026-04-14 12:19 10.13762 -59.60233 28682 ft 428 kts 134°
2026-04-14 12:20 10.11820 -59.57927 28866 ft 430 kts 134°
2026-04-14 12:20 10.09869 -59.55616 29069 ft 431 kts 134°
2026-04-14 12:20 10.07913 -59.53296 29274 ft 432 kts 134°
2026-04-14 12:20 10.05954 -59.50976 29467 ft 434 kts 134°
2026-04-14 12:21 10.03984 -59.48643 29658 ft 435 kts 134°
2026-04-14 12:21 10.02011 -59.46307 29842 ft 436 kts 134°
2026-04-14 12:21 10.00054 -59.43990 30016 ft 437 kts 134°
2026-04-14 12:21 9.98073 -59.41645 30195 ft 438 kts 134°
2026-04-14 12:22 9.96088 -59.39293 30414 ft 438 kts 134°
2026-04-14 12:22 9.94106 -59.36934 30595 ft 439 kts 134°
2026-04-14 12:22 9.92124 -59.34571 30766 ft 440 kts 134°
2026-04-14 12:22 9.90133 -59.32201 30916 ft 442 kts 134°
2026-04-14 12:23 9.88157 -59.29857 31075 ft 443 kts 134°
2026-04-14 12:23 9.86155 -59.27479 31246 ft 444 kts 134°
2026-04-14 12:23 9.84149 -59.25091 31401 ft 445 kts 134°
2026-04-14 12:23 9.82138 -59.22697 31552 ft 445 kts 134°
2026-04-14 12:24 9.80126 -59.20301 31690 ft 446 kts 134°
2026-04-14 12:24 9.78112 -59.17903 31819 ft 447 kts 134°
2026-04-14 12:24 9.76089 -59.15496 32008 ft 447 kts 134°
2026-04-14 12:24 9.74100 -59.13127 32229 ft 446 kts 134°
2026-04-14 12:25 9.72091 -59.10734 32444 ft 445 kts 134°
2026-04-14 12:25 9.70090 -59.08349 32646 ft 444 kts 134°
2026-04-14 12:25 9.68092 -59.05968 32809 ft 443 kts 134°
2026-04-14 12:25 9.66088 -59.03592 32967 ft 443 kts 134°
2026-04-14 12:26 9.64084 -59.01216 33169 ft 443 kts 134°
2026-04-14 12:26 9.62084 -58.98842 33348 ft 442 kts 134°
2026-04-14 12:26 9.60084 -58.96464 33541 ft 442 kts 134°
2026-04-14 12:26 9.58084 -58.94097 33716 ft 441 kts 134°
2026-04-14 12:27 9.56113 -58.91766 33889 ft 441 kts 134°
2026-04-14 12:27 9.54113 -58.89396 34053 ft 441 kts 134°
2026-04-14 12:27 9.52123 -58.87035 34186 ft 441 kts 134°
2026-04-14 12:27 9.50125 -58.84661 34256 ft 443 kts 134°
2026-04-14 12:28 9.46097 -58.79886 34394 ft 447 kts 134°
2026-04-14 12:28 9.44076 -58.77490 34518 ft 447 kts 134°
2026-04-14 12:28 9.42080 -58.75122 34585 ft 449 kts 134°
2026-04-14 12:29 9.37992 -58.70280 34707 ft 453 kts 134°
2026-04-14 12:29 9.33899 -58.65413 34885 ft 454 kts 134°
2026-04-14 12:30 9.29779 -58.60523 34957 ft 459 kts 134°
2026-04-14 12:30 9.25601 -58.55561 34965 ft 465 kts 134°
2026-04-14 12:31 9.21413 -58.50591 34961 ft 466 kts 134°
2026-04-14 12:31 9.17241 -58.45643 34959 ft 462 kts 134°
2026-04-14 12:32 9.13070 -58.40713 34961 ft 461 kts 134°
2026-04-14 12:32 9.08902 -58.35764 34963 ft 461 kts 134°
2026-04-14 12:33 9.04721 -58.30814 34961 ft 462 kts 134°
2026-04-14 12:33 9.00562 -58.25918 34962 ft 461 kts 134°
2026-04-14 12:34 8.96381 -58.20984 34951 ft 460 kts 134°
2026-04-14 12:34 8.92219 -58.16057 34953 ft 459 kts 134°
2026-04-14 12:35 8.88052 -58.11154 34954 ft 459 kts 134°
2026-04-14 12:35 8.83916 -58.06281 34958 ft 459 kts 134°
2026-04-14 12:36 8.79771 -58.01366 34961 ft 458 kts 134°
2026-04-14 12:36 8.75615 -57.96463 34960 ft 458 kts 134°
2026-04-14 12:37 8.71479 -57.91567 34960 ft 458 kts 134°
2026-04-14 12:37 8.67344 -57.86682 34960 ft 457 kts 134°
2026-04-14 12:38 8.61170 -57.79394 34961 ft 456 kts 134°
2026-04-14 12:39 8.57041 -57.74509 34961 ft 456 kts 134°
2026-04-14 12:39 8.52901 -57.69637 34962 ft 457 kts 134°
2026-04-14 12:40 8.48753 -57.64779 34961 ft 456 kts 134°
2026-04-14 12:40 8.44630 -57.59946 34960 ft 456 kts 134°
2026-04-14 12:41 8.40601 -57.55221 34962 ft 456 kts 134°
2026-04-14 12:41 8.36470 -57.50356 34962 ft 455 kts 134°
2026-04-14 12:42 8.32335 -57.45506 34962 ft 456 kts 134°
2026-04-14 12:42 8.28192 -57.40649 34961 ft 457 kts 134°
2026-04-14 12:43 8.24076 -57.35817 34962 ft 456 kts 134°
2026-04-14 12:43 8.19928 -57.30964 34960 ft 456 kts 134°
2026-04-14 12:44 8.15783 -57.26112 34961 ft 456 kts 134°
2026-04-14 12:44 8.11638 -57.21254 34960 ft 457 kts 134°
2026-04-14 12:45 8.05429 -57.13982 34963 ft 457 kts 134°
2026-04-14 12:45 8.01267 -57.09113 34960 ft 457 kts 134°
2026-04-14 12:46 7.97097 -57.04254 34964 ft 456 kts 132°
2026-04-14 12:46 7.93684 -56.98847 34967 ft 459 kts 118°
2026-04-14 12:47 7.91224 -56.92931 34962 ft 461 kts 113°
2026-04-14 12:47 7.88884 -56.86897 34961 ft 462 kts 114°
2026-04-14 12:48 7.86500 -56.80868 34961 ft 462 kts 114°
2026-04-14 12:48 7.84111 -56.74842 34958 ft 462 kts 114°
2026-04-14 12:49 7.81722 -56.68814 34961 ft 462 kts 114°
2026-04-14 12:49 7.79351 -56.62826 34961 ft 462 kts 114°
2026-04-14 12:50 7.75764 -56.53781 34961 ft 462 kts 114°
2026-04-14 12:51 7.73429 -56.47896 34961 ft 463 kts 114°
2026-04-14 12:51 7.71045 -56.41893 34961 ft 464 kts 114°
2026-04-14 12:52 7.68646 -56.35844 34960 ft 464 kts 114°
2026-04-14 12:52 7.66252 -56.29805 34962 ft 463 kts 114°
2026-04-14 12:53 7.63863 -56.23780 34960 ft 463 kts 114°
2026-04-14 12:53 7.61484 -56.17779 34963 ft 464 kts 114°
2026-04-14 12:54 7.59087 -56.11727 34964 ft 464 kts 114°
2026-04-14 12:54 7.56688 -56.05672 34957 ft 465 kts 114°
2026-04-14 12:55 7.54299 -55.99642 34957 ft 462 kts 114°
2026-04-14 12:55 7.51930 -55.93656 34958 ft 463 kts 114°
2026-04-14 12:56 7.49538 -55.87618 34961 ft 463 kts 114°
2026-04-14 12:56 7.47149 -55.81585 34961 ft 463 kts 114°
2026-04-14 12:57 7.44775 -55.75588 34961 ft 462 kts 113°
2026-04-14 12:57 7.42393 -55.69579 34962 ft 461 kts 113°
2026-04-14 12:58 7.40017 -55.63579 34962 ft 461 kts 113°
2026-04-14 12:58 7.37641 -55.57574 34960 ft 462 kts 113°
2026-04-14 12:59 7.35264 -55.51560 34961 ft 461 kts 113°
2026-04-14 12:59 7.33288 -55.46575 34962 ft 460 kts 113°
2026-04-14 13:00 7.30915 -55.40581 34960 ft 460 kts 113°
2026-04-14 13:00 7.28547 -55.34585 34964 ft 460 kts 113°
2026-04-14 13:01 7.26179 -55.28602 34961 ft 459 kts 113°
2026-04-14 13:01 7.23826 -55.22663 34961 ft 459 kts 113°
2026-04-14 13:02 7.21457 -55.16674 34962 ft 459 kts 113°
2026-04-14 13:02 7.19096 -55.10697 34961 ft 459 kts 113°
2026-04-14 13:03 7.16738 -55.04717 34959 ft 459 kts 113°
2026-04-14 13:03 7.14395 -54.98781 34963 ft 458 kts 113°
2026-04-14 13:04 7.12031 -54.92820 34961 ft 458 kts 113°
2026-04-14 13:04 7.09677 -54.86860 34961 ft 458 kts 113°
2026-04-14 13:05 7.07325 -54.80899 34961 ft 457 kts 113°
2026-04-14 13:05 7.04953 -54.74953 34962 ft 457 kts 114°
2026-04-14 13:06 7.02640 -54.69157 34959 ft 457 kts 113°
2026-04-14 13:06 7.00274 -54.63220 34959 ft 457 kts 114°
2026-04-14 13:07 6.97919 -54.57306 34961 ft 457 kts 113°
2026-04-14 13:07 6.95555 -54.51360 34960 ft 457 kts 113°
2026-04-14 13:08 6.93188 -54.45429 34961 ft 456 kts 114°
2026-04-14 13:08 6.90738 -54.39554 34963 ft 455 kts 115°
2026-04-14 13:09 6.88322 -54.33709 34962 ft 455 kts 113°
2026-04-14 13:09 6.85994 -54.27790 34960 ft 455 kts 113°
2026-04-14 13:10 6.83667 -54.21871 34961 ft 454 kts 113°
2026-04-14 13:10 6.81321 -54.15969 34962 ft 454 kts 113°
2026-04-14 13:11 6.79000 -54.10066 34961 ft 453 kts 113°
2026-04-14 13:11 6.76674 -54.04163 34962 ft 453 kts 113°
2026-04-14 13:12 6.73631 -53.98733 34922 ft 447 kts 136°
2026-04-14 13:12 6.68709 -53.94997 34975 ft 443 kts 152°
2026-04-14 13:13 6.63232 -53.92137 34964 ft 443 kts 155°
2026-04-14 13:13 6.57926 -53.89440 34960 ft 441 kts 154°
2026-04-14 13:14 6.52463 -53.86627 34961 ft 441 kts 154°
2026-04-14 13:14 6.47002 -53.83819 34961 ft 441 kts 154°
2026-04-14 13:15 6.41529 -53.81013 34961 ft 441 kts 154°
2026-04-14 13:15 6.36067 -53.78213 34961 ft 440 kts 154°
2026-04-14 13:16 6.30605 -53.75415 34960 ft 440 kts 154°
2026-04-14 13:16 6.25126 -53.72604 34551 ft 446 kts 154°
2026-04-14 13:16 6.22353 -53.71184 34006 ft 447 kts 154°
2026-04-14 13:17 6.19594 -53.69773 33480 ft 443 kts 154°
2026-04-14 13:17 6.16882 -53.68386 32963 ft 442 kts 154°
2026-04-14 13:17 6.14138 -53.66982 32449 ft 443 kts 154°
2026-04-14 13:17 6.11395 -53.65576 31925 ft 441 kts 154°
2026-04-14 13:18 6.08675 -53.64181 31403 ft 436 kts 154°
2026-04-14 13:18 6.05972 -53.62801 30892 ft 434 kts 154°
2026-04-14 13:18 6.03288 -53.61431 30390 ft 431 kts 154°
2026-04-14 13:18 6.00624 -53.60070 29882 ft 428 kts 154°
2026-04-14 13:19 5.97974 -53.58714 29385 ft 426 kts 154°
2026-04-14 13:19 5.95342 -53.57367 28890 ft 423 kts 154°
2026-04-14 13:19 5.92755 -53.56042 28405 ft 421 kts 154°
2026-04-14 13:19 5.90152 -53.54709 27922 ft 418 kts 154°
2026-04-14 13:20 5.87571 -53.53386 27439 ft 416 kts 154°
2026-04-14 13:20 5.85003 -53.52069 26958 ft 414 kts 154°
2026-04-14 13:20 5.82445 -53.50761 26483 ft 411 kts 154°
2026-04-14 13:20 5.79897 -53.49464 26003 ft 409 kts 154°
2026-04-14 13:21 5.77362 -53.48173 25529 ft 407 kts 154°
2026-04-14 13:21 5.74841 -53.46889 25059 ft 404 kts 154°
2026-04-14 13:21 5.72364 -53.45628 24597 ft 402 kts 154°
2026-04-14 13:21 5.69875 -53.44358 24144 ft 400 kts 154°
2026-04-14 13:22 5.67389 -53.43086 23691 ft 399 kts 154°
2026-04-14 13:22 5.64957 -53.41840 23247 ft 396 kts 154°
2026-04-14 13:22 5.62507 -53.40587 22797 ft 394 kts 154°
2026-04-14 13:22 5.60070 -53.39360 22353 ft 391 kts 155°
2026-04-14 13:23 5.57606 -53.38223 21906 ft 389 kts 157°
2026-04-14 13:23 5.55131 -53.37136 21468 ft 387 kts 156°
2026-04-14 13:23 5.52696 -53.35988 21032 ft 385 kts 155°
2026-04-14 13:23 5.50307 -53.34785 20601 ft 383 kts 154°
2026-04-14 13:24 5.47939 -53.33560 20165 ft 381 kts 153°
2026-04-14 13:24 5.43248 -53.31141 19303 ft 376 kts 154°
2026-04-14 13:24 5.40923 -53.29941 18878 ft 375 kts 153°
2026-04-14 13:25 5.38613 -53.28739 18448 ft 373 kts 153°
2026-04-14 13:25 5.36315 -53.27542 18028 ft 371 kts 153°
2026-04-14 13:26 5.29536 -53.24011 16785 ft 361 kts 153°
2026-04-14 13:26 5.27315 -53.22851 16385 ft 358 kts 152°
2026-04-14 13:26 5.25109 -53.21704 15976 ft 354 kts 152°
2026-04-14 13:26 5.22921 -53.20567 15578 ft 352 kts 152°
2026-04-14 13:27 5.20767 -53.19438 15183 ft 348 kts 150°
2026-04-14 13:27 5.18808 -53.18089 14850 ft 344 kts 138°
2026-04-14 13:27 5.17165 -53.16366 14607 ft 341 kts 128°
2026-04-14 13:27 5.15758 -53.14460 14364 ft 339 kts 124°
2026-04-14 13:28 5.14418 -53.12526 14112 ft 337 kts 124°
2026-04-14 13:28 5.13062 -53.10612 13861 ft 335 kts 125°
2026-04-14 13:28 5.11700 -53.08724 13610 ft 333 kts 125°
2026-04-14 13:28 5.10347 -53.06842 13360 ft 331 kts 125°
2026-04-14 13:29 5.09011 -53.04975 13112 ft 329 kts 124°
2026-04-14 13:29 5.07684 -53.03119 12858 ft 326 kts 125°
2026-04-14 13:29 5.06360 -53.01275 12609 ft 324 kts 124°
2026-04-14 13:29 5.05065 -52.99466 12363 ft 322 kts 124°
2026-04-14 13:30 5.03766 -52.97645 12111 ft 320 kts 124°
2026-04-14 13:30 5.02474 -52.95831 11860 ft 318 kts 124°
2026-04-14 13:30 5.01187 -52.94069 11582 ft 306 kts 126°
2026-04-14 13:30 4.99884 -52.92409 11175 ft 298 kts 127°
2026-04-14 13:31 4.98602 -52.90806 10825 ft 290 kts 126°
2026-04-14 13:31 4.97405 -52.89205 10439 ft 283 kts 124°
2026-04-14 13:31 4.96267 -52.87621 10068 ft 277 kts 124°
2026-04-14 13:31 4.95140 -52.86078 9687 ft 271 kts 124°
2026-04-14 13:32 4.94052 -52.84574 9309 ft 267 kts 124°
2026-04-14 13:32 4.92979 -52.83072 8931 ft 263 kts 124°
2026-04-14 13:32 4.91920 -52.81582 8561 ft 260 kts 123°
2026-04-14 13:32 4.90885 -52.80120 8240 ft 254 kts 123°
2026-04-14 13:33 4.89861 -52.78683 7840 ft 253 kts 123°
2026-04-14 13:33 4.88841 -52.77245 7439 ft 251 kts 123°
2026-04-14 13:33 4.87841 -52.75835 7144 ft 245 kts 123°
2026-04-14 13:33 4.86859 -52.74447 6836 ft 241 kts 123°
2026-04-14 13:34 4.84976 -52.71779 6270 ft 231 kts 123°
2026-04-14 13:34 4.84054 -52.70482 5968 ft 227 kts 123°
2026-04-14 13:34 4.83141 -52.69196 5608 ft 226 kts 122°
2026-04-14 13:35 4.82245 -52.67913 5317 ft 222 kts 122°
2026-04-14 13:35 4.81368 -52.66669 5157 ft 213 kts 122°
2026-04-14 13:35 4.80530 -52.65488 5059 ft 202 kts 122°
2026-04-14 13:35 4.79738 -52.64362 4904 ft 193 kts 122°
2026-04-14 13:36 4.78987 -52.63301 4751 ft 184 kts 122°
2026-04-14 13:36 4.78269 -52.62283 4598 ft 173 kts 121°
2026-04-14 13:36 4.77591 -52.61324 4443 ft 168 kts 121°
2026-04-14 13:36 4.76910 -52.60363 4283 ft 168 kts 121°
2026-04-14 13:37 4.76238 -52.59411 4026 ft 166 kts 121°
2026-04-14 13:37 4.75568 -52.58463 4016 ft 168 kts 121°
2026-04-14 13:37 4.74892 -52.57506 3877 ft 166 kts 121°
2026-04-14 13:37 4.74228 -52.56567 3804 ft 165 kts 121°
2026-04-14 13:38 4.73705 -52.55568 3630 ft 156 kts 100°
2026-04-14 13:38 4.73776 -52.54539 3489 ft 148 kts 68°
2026-04-14 13:38 4.74203 -52.53607 3524 ft 148 kts 67°
2026-04-14 13:38 4.74592 -52.52638 3446 ft 151 kts 68°
2026-04-14 13:39 4.74986 -52.51679 3185 ft 150 kts 67°
2026-04-14 13:39 4.75390 -52.50741 2946 ft 146 kts 67°
2026-04-14 13:39 4.75797 -52.49806 2702 ft 145 kts 66°
2026-04-14 13:39 4.76205 -52.48881 2463 ft 144 kts 65°
2026-04-14 13:40 4.76610 -52.47970 2226 ft 143 kts 66°
2026-04-14 13:40 4.77023 -52.47062 2065 ft 146 kts 66°
2026-04-14 13:40 4.77438 -52.46129 1900 ft 147 kts 66°
2026-04-14 13:40 4.77861 -52.45201 1686 ft 146 kts 65°
2026-04-14 13:41 4.78281 -52.44270 1514 ft 146 kts 64°
2026-04-14 13:41 4.78696 -52.43348 1332 ft 146 kts 65°
2026-04-14 13:41 4.79128 -52.42411 1121 ft 148 kts 65°
2026-04-14 13:41 4.79552 -52.41480 939 ft 148 kts 66°
2026-04-14 13:42 4.79978 -52.40545 701 ft 147 kts 65°
2026-04-14 13:42 4.80404 -52.39618 527 ft 147 kts 65°
2026-04-14 13:42 4.80817 -52.38670 321 ft 149 kts 68°
2026-04-14 13:42 4.81243 -52.37717 153 ft 151 kts 65°
2026-04-14 13:43 4.81677 -52.36794 31 ft 140 kts 63°
2026-04-14 13:43 4.81990 -52.36124 30 ft 75 kts 64°
2026-04-14 13:43 4.82062 -52.35974 31 ft 10 kts 48°
2026-04-14 13:43 4.82114 -52.35968 32 ft 6 kts 326°
2026-04-14 13:44 4.82138 -52.35991 32 ft 7 kts 311°
2026-04-14 13:44 4.82160 -52.36020 32 ft 4 kts 307°
2026-04-14 13:44 4.82179 -52.36054 32 ft 5 kts 289°
2026-04-14 13:44 4.82181 -52.36087 31 ft 4 kts 263°
2026-04-14 13:45 4.82173 -52.36116 31 ft 8 kts 250°
2026-04-14 13:45 4.82145 -52.36181 31 ft 11 kts 245°
2026-04-14 13:45 4.82114 -52.36248 31 ft 8 kts 245°
2026-04-14 13:45 4.82088 -52.36304 31 ft 9 kts 245°
2026-04-14 13:46 4.82062 -52.36360 30 ft 7 kts 248°
2026-04-14 13:46 4.82068 -52.36395 30 ft 5 kts 306°
2026-04-14 13:46 4.82088 -52.36410 31 ft 3 kts 332°
2026-04-14 13:46 4.82100 -52.36416 31 ft 2 kts 334°
2026-04-14 13:47 4.82113 -52.36420 31 ft 1 kts 345°
2026-04-14 13:47 4.82114 -52.36420 31 ft 0 kts 347°